Location: Unspecified
(0.0000°N, 0.0000°E)
Time: 11:32:14
(UTC+00:00)

Cosmos 2026 Rocket - Pass Details

Date: 27 January 2013
Orbit: 941 x 1000 km, 82.9° (Epoch: 25 July)

Event Time Altitude Azimuth Distance (km) Brightness Sun altitude
Rises 19:16:10 0° 187° (S) 3,664 7.4 -15.0°
Reaches altitude 10° 19:18:40 10° 188° (S) 2,723 6.7 -15.6°
Maximum altitude 19:24:55 76° 273° (W) 1,016 4.2 -17.1°
Drops below altitude 10° 19:31:13 10° 358° (N) 2,747 6.2 -18.6°
Sets 19:33:45 0° 360° (N) 3,699 6.8 -19.2°
